time, Switch, Flow(0), Analog(2)
yyyy/mm/dd HH:MM:SS.fff, True=FILTERED|False=TOTAL, L/min, V
2023/06/25 12:00:03.401, True, 4.642, 0.126650
2023/06/25 12:00:03.898, True, 4.043, 0.124971
2023/06/25 12:00:04.402, True, 3.316, 0.125277
2023/06/25 12:00:04.905, True, 2.325, 0.125734
2023/06/25 12:00:05.401, True, 2.019, 0.125963
2023/06/25 12:00:05.906, True, 1.990, 0.127031
2023/06/25 12:00:06.409, True, 1.990, 0.126497
2023/06/25 12:00:06.905, True, 2.022, 0.127108
2023/06/25 12:00:07.409, True, 1.990, 0.126192
2023/06/25 12:00:07.913, True, 1.993, 0.126802
2023/06/25 12:00:08.409, True, 2.355, 0.126726
2023/06/25 12:00:08.914, True, 1.990, 0.125582
2023/06/25 12:00:09.418, True, 1.990, 0.124971
2023/06/25 12:00:09.914, True, 2.022, 0.124971
2023/06/25 12:00:10.418, True, 1.989, 0.125505
2023/06/25 12:00:10.922, True, 1.990, 0.124437
2023/06/25 12:00:11.418, True, 2.024, 0.124361
2023/06/25 12:00:11.921, True, 2.319, 0.124208
2023/06/25 12:00:12.418, True, 2.022, 0.127184
2023/06/25 12:00:12.922, True, 1.990, 0.124895
2023/06/25 12:00:13.426, True, 1.990, 0.127108
2023/06/25 12:00:13.921, True, 2.022, 0.124285
2023/06/25 12:00:14.425, True, 1.990, 0.124666
2023/06/25 12:00:14.930, True, 2.323, 0.126040
2023/06/25 12:00:15.426, True, 2.022, 0.127337
2023/06/25 12:00:15.929, True, 1.988, 0.125277
2023/06/25 12:00:16.433, True, 1.992, 0.127871
2023/06/25 12:00:16.930, True, 2.021, 0.125963
2023/06/25 12:00:17.434, True, 1.989, 0.124208
2023/06/25 12:00:17.938, True, 1.989, 0.127565
2023/06/25 12:00:18.434, True, 2.025, 0.126802
2023/06/25 12:00:18.938, True, 2.319, 0.127260
2023/06/25 12:00:19.442, True, 1.988, 0.127260
2023/06/25 12:00:19.945, True, 1.991, 0.126345
2023/06/25 12:00:20.442, True, 2.358, 0.127108
2023/06/25 12:00:20.946, True, 1.989, 0.124437
2023/06/25 12:00:21.450, True, 1.989, 0.127108
2023/06/25 12:00:21.945, True, 2.024, 0.127184
2023/06/25 12:00:22.450, True, 1.990, 0.124819
2023/06/25 12:00:22.954, True, 2.318, 0.122530
2023/06/25 12:00:23.450, True, 2.022, 0.123751
2023/06/25 12:00:23.954, True, 2.325, 0.126650
2023/06/25 12:00:24.458, True, 1.987, 0.125734
2023/06/25 12:00:24.954, True, 2.359, 0.124590
2023/06/25 12:00:25.458, True, 1.990, 0.125582
2023/06/25 12:00:25.962, True, 1.992, 0.126116
2023/06/25 12:00:26.458, True, 2.355, 0.124132
2023/06/25 12:00:26.962, True, 1.990, 0.126726
2023/06/25 12:00:27.466, True, 1.990, 0.125963
2023/06/25 12:00:27.962, True, 2.022, 0.125811
2023/06/25 12:00:28.466, True, 1.993, 0.126802
2023/06/25 12:00:28.970, True, 2.317, 0.125734
2023/06/25 12:00:29.474, True, 1.990, 0.125887
2023/06/25 12:00:29.969, True, 2.022, 0.126802
2023/06/25 12:00:30.474, True, 2.323, 0.124132
2023/06/25 12:00:30.978, True, 1.988, 0.127413
2023/06/25 12:00:31.473, True, 1.686, 0.125734
2023/06/25 12:00:31.978, True, 2.319, 0.126116
2023/06/25 12:00:32.482, True, 1.990, 0.126574
2023/06/25 12:00:32.978, True, 2.022, 0.128405
2023/06/25 12:00:33.482, True, 1.989, 0.127718
2023/06/25 12:00:33.986, True, 1.990, 0.130159
2023/06/25 12:00:34.482, True, 2.363, 0.127565
2023/06/25 12:00:34.985, True, 1.986, 0.126040
2023/06/25 12:00:35.490, True, 1.990, 0.128557
2023/06/25 12:00:35.993, True, 2.321, 0.128405
2023/06/25 12:00:36.490, True, 2.022, 0.127337
2023/06/25 12:00:36.994, True, 1.990, 0.129320
2023/06/25 12:00:37.497, True, 1.990, 0.130083
2023/06/25 12:00:37.994, True, 2.022, 0.129854
2023/06/25 12:00:38.497, True, 2.321, 0.130312
2023/06/25 12:00:38.994, True, 2.022, 0.129244
2023/06/25 12:00:39.498, True, 1.990, 0.132143
2023/06/25 12:00:40.002, True, 1.990, 0.131533
2023/06/25 12:00:40.498, True, 2.359, 0.130770
2023/06/25 12:00:41.002, True, 1.990, 0.133516
2023/06/25 12:00:41.505, True, 1.990, 0.132448
2023/06/25 12:00:42.010, True, 1.990, 0.132525
2023/06/25 12:00:42.505, True, 2.022, 0.133211
2023/06/25 12:00:43.010, True, 2.321, 0.134585
2023/06/25 12:00:43.514, True, 1.990, 0.134051
2023/06/25 12:00:44.009, True, 2.360, 0.134203
2023/06/25 12:00:44.514, True, 1.989, 0.134432
2023/06/25 12:00:45.018, True, 1.991, 0.136416
2023/06/25 12:00:45.513, True, 2.020, 0.135576
2023/06/25 12:00:46.018, True, 2.321, 0.135424
2023/06/25 12:00:46.522, True, 1.990, 0.136568
2023/06/25 12:00:47.018, True, 2.022, 0.135729
2023/06/25 12:00:47.522, True, 1.990, 0.135042
2023/06/25 12:00:48.026, True, 2.321, 0.136492
2023/06/25 12:00:48.522, True, 2.022, 0.137789
2023/06/25 12:00:49.025, True, 1.990, 0.138094
2023/06/25 12:00:49.530, True, 2.321, 0.134051
2023/06/25 12:00:50.026, True, 1.685, 0.134966
2023/06/25 12:00:50.530, True, 1.990, 0.134051
2023/06/25 12:00:51.026, True, 2.022, 0.136797
2023/06/25 12:00:51.530, True, 1.990, 0.136187
2023/06/25 12:00:52.033, True, 1.990, 0.137331
2023/06/25 12:00:52.538, True, 2.321, 0.136034
2023/06/25 12:00:53.033, True, 1.687, 0.135348
2023/06/25 12:00:53.538, True, 1.987, 0.138018
2023/06/25 12:00:54.042, True, 1.990, 0.134966
2023/06/25 12:00:54.538, True, 2.022, 0.138781
2023/06/25 12:00:55.042, True, 1.990, 0.136568
2023/06/25 12:00:55.538, True, 2.022, 0.136110
2023/06/25 12:00:56.042, True, 1.990, 0.138476
2023/06/25 12:00:56.546, True, 1.990, 0.138323
2023/06/25 12:00:57.041, True, 2.022, 0.136950
2023/06/25 12:00:57.546, True, 2.321, 0.137331
2023/06/25 12:00:58.050, True, 1.990, 0.139010
2023/06/25 12:00:58.545, True, 2.022, 0.135424
2023/06/25 12:00:59.050, True, 1.989, 0.137407
2023/06/25 12:00:59.554, True, 1.990, 0.139086
2023/06/25 12:01:00.049, True, 2.023, 0.136263
2023/06/25 12:01:00.553, True, 1.988, 0.135119
2023/06/25 12:01:01.058, True, 1.990, 0.140459
2023/06/25 12:01:01.562, True, 1.990, 0.137789
2023/06/25 12:01:02.058, True, 2.022, 0.136110
2023/06/25 12:01:02.562, True, 1.990, 0.137789
2023/06/25 12:01:03.066, True, 2.321, 0.135653
2023/06/25 12:01:03.561, True, 2.022, 0.137407
2023/06/25 12:01:04.065, True, 1.989, 0.137026
2023/06/25 12:01:04.570, True, 1.992, 0.140536
2023/06/25 12:01:05.065, True, 2.019, 0.139315
2023/06/25 12:01:05.570, True, 1.658, 0.138170
2023/06/25 12:01:06.074, True, 1.989, 0.136797
2023/06/25 12:01:06.569, True, 2.023, 0.137484
2023/06/25 12:01:07.073, True, 1.657, 0.137484
2023/06/25 12:01:07.578, True, 1.990, 0.136568
2023/06/25 12:01:08.074, True, 2.022, 0.138857
2023/06/25 12:01:08.578, True, 1.660, 0.135729
2023/06/25 12:01:09.081, True, 1.990, 0.139773
2023/06/25 12:01:09.578, True, 2.019, 0.138323
2023/06/25 12:01:10.081, True, 1.990, 0.137713
2023/06/25 12:01:10.586, True, 1.990, 0.140459
2023/06/25 12:01:11.081, True, 1.687, 0.134432
2023/06/25 12:01:11.586, True, 1.987, 0.137636
2023/06/25 12:01:12.089, True, 1.990, 0.137560
2023/06/25 12:01:12.586, True, 2.025, 0.136568
2023/06/25 12:01:13.090, True, 1.656, 0.135958
2023/06/25 12:01:13.594, True, 1.990, 0.137636
2023/06/25 12:01:14.089, True, 2.022, 0.135729
2023/06/25 12:01:14.593, True, 1.990, 0.138476
2023/06/25 12:01:15.098, True, 1.658, 0.134813
2023/06/25 12:01:15.594, True, 2.025, 0.137942
2023/06/25 12:01:16.098, True, 1.986, 0.138170
2023/06/25 12:01:16.602, True, 1.658, 0.139544
2023/06/25 12:01:17.098, True, 2.022, 0.136873
2023/06/25 12:01:17.602, True, 1.658, 0.136034
2023/06/25 12:01:18.106, True, 1.990, 0.136187
2023/06/25 12:01:18.601, True, 2.022, 0.136187
2023/06/25 12:01:19.106, True, 1.658, 0.136339
2023/06/25 12:01:19.610, True, 1.990, 0.138323
2023/06/25 12:01:20.105, True, 1.685, 0.136645
2023/06/25 12:01:20.609, True, 1.989, 0.137331
2023/06/25 12:01:21.113, True, 1.992, 0.136645
2023/06/25 12:01:21.609, True, 1.683, 0.135958
2023/06/25 12:01:22.113, True, 1.993, 0.137789
2023/06/25 12:01:22.617, True, 1.987, 0.136873
2023/06/25 12:01:23.113, True, 1.685, 0.139086
2023/06/25 12:01:23.617, True, 1.990, 0.137407
2023/06/25 12:01:24.121, True, 1.989, 0.135424
2023/06/25 12:01:24.617, True, 1.686, 0.137255
2023/06/25 12:01:25.121, True, 1.988, 0.136797
2023/06/25 12:01:25.625, True, 1.990, 0.137179
2023/06/25 12:01:26.121, True, 1.685, 0.136416
2023/06/25 12:01:26.625, True, 1.989, 0.136568
2023/06/25 12:01:27.129, True, 1.658, 0.137026
2023/06/25 12:01:27.625, True, 1.685, 0.137331
2023/06/25 12:01:28.129, True, 1.989, 0.137102
2023/06/25 12:01:28.634, True, 1.990, 0.135500
2023/06/25 12:01:29.129, True, 1.685, 0.135805
2023/06/25 12:01:29.633, True, 1.990, 0.139162
2023/06/25 12:01:30.137, True, 1.990, 0.136568
2023/06/25 12:01:30.633, True, 1.684, 0.137636
2023/06/25 12:01:31.137, True, 1.990, 0.136950
2023/06/25 12:01:31.641, True, 1.992, 0.135576
2023/06/25 12:01:32.137, True, 1.683, 0.135424
2023/06/25 12:01:32.641, True, 1.990, 0.135882
2023/06/25 12:01:33.145, True, 1.990, 0.136416
2023/06/25 12:01:33.641, True, 1.685, 0.136416
2023/06/25 12:01:34.145, True, 1.990, 0.134813
2023/06/25 12:01:34.649, True, 1.991, 0.137789
2023/06/25 12:01:35.146, True, 1.684, 0.135958
2023/06/25 12:01:35.649, True, 1.989, 0.136873
2023/06/25 12:01:36.153, True, 1.990, 0.135805
2023/06/25 12:01:36.649, True, 1.685, 0.136950
2023/06/25 12:01:37.153, True, 1.989, 0.136645
2023/06/25 12:01:37.649, True, 1.685, 0.137331
2023/06/25 12:01:38.153, True, 1.659, 0.136263
2023/06/25 12:01:38.657, True, 1.988, 0.136187
2023/06/25 12:01:39.153, True, 1.686, 0.135958
2023/06/25 12:01:39.657, True, 1.990, 0.138323
2023/06/25 12:01:40.153, True, 1.687, 0.135805
2023/06/25 12:01:40.657, True, 1.986, 0.137713
2023/06/25 12:01:41.161, True, 1.659, 0.134966
2023/06/25 12:01:41.665, True, 1.988, 0.136797
2023/06/25 12:01:42.161, True, 2.022, 0.136339
2023/06/25 12:01:42.665, True, 1.660, 0.135653
2023/06/25 12:01:43.169, True, 1.988, 0.136492
2023/06/25 12:01:43.665, True, 2.022, 0.135119
2023/06/25 12:01:44.169, True, 1.660, 0.136263
2023/06/25 12:01:44.673, True, 1.988, 0.134203
2023/06/25 12:01:45.169, True, 1.686, 0.137102
2023/06/25 12:01:45.673, True, 1.660, 0.133669
2023/06/25 12:01:46.177, True, 1.989, 0.133822
2023/06/25 12:01:46.673, True, 2.019, 0.133593
2023/06/25 12:01:47.177, True, 1.661, 0.136873
2023/06/25 12:01:47.681, True, 1.990, 0.135500
2023/06/25 12:01:48.177, True, 1.685, 0.135271
2023/06/25 12:01:48.681, True, 1.990, 0.136645
2023/06/25 12:01:49.185, True, 1.989, 0.135271
2023/06/25 12:01:49.681, True, 1.686, 0.132219
2023/06/25 12:01:50.185, True, 1.986, 0.133669
2023/06/25 12:01:50.689, True, 1.661, 0.134737
2023/06/25 12:01:51.184, True, 2.022, 0.136721
2023/06/25 12:01:51.689, True, 1.986, 0.135500
2023/06/25 12:01:52.193, True, 1.658, 0.134966
2023/06/25 12:01:52.696, True, 1.991, 0.136492
2023/06/25 12:01:53.193, True, 1.687, 0.134585
2023/06/25 12:01:53.697, True, 1.987, 0.135424
2023/06/25 12:01:54.201, True, 1.657, 0.136034
2023/06/25 12:01:54.697, True, 2.022, 0.135958
2023/06/25 12:01:55.201, True, 1.989, 0.135576
2023/06/25 12:01:55.705, True, 1.658, 0.135195
2023/06/25 12:01:56.201, True, 2.022, 0.135271
2023/06/25 12:01:56.705, True, 1.990, 0.133974
2023/06/25 12:01:57.209, True, 1.989, 0.134661
2023/06/25 12:01:57.705, True, 1.685, 0.136263
2023/06/25 12:01:58.209, True, 1.990, 0.134813
2023/06/25 12:01:58.713, True, 1.659, 0.135805
2023/06/25 12:01:59.209, True, 2.021, 0.135195
2023/06/25 12:01:59.713, True, 1.990, 0.134966
2023/06/25 12:02:00.209, True, 1.685, 0.137484
2023/06/25 12:02:00.713, True, 1.991, 0.135042
2023/06/25 12:02:01.217, True, 1.657, 0.135195
2023/06/25 12:02:01.713, True, 2.022, 0.135348
2023/06/25 12:02:02.217, True, 1.658, 0.133898
2023/06/25 12:02:02.721, True, 1.990, 0.133822
2023/06/25 12:02:03.217, True, 2.023, 0.134508
2023/06/25 12:02:03.721, True, 1.989, 0.136339
2023/06/25 12:02:04.225, True, 1.991, 0.134356
2023/06/25 12:02:04.721, True, 1.683, 0.133135
2023/06/25 12:02:05.225, True, 1.989, 0.134966
2023/06/25 12:02:05.729, True, 1.992, 0.134813
2023/06/25 12:02:06.233, True, 1.991, 0.134279
2023/06/25 12:02:06.728, True, 1.682, 0.136187
2023/06/25 12:02:07.233, True, 1.990, 0.132906
2023/06/25 12:02:07.729, True, 1.685, 0.134585
2023/06/25 12:02:08.233, True, 1.989, 0.135271
2023/06/25 12:02:08.737, True, 1.989, 0.132830
2023/06/25 12:02:09.233, True, 2.022, 0.134737
2023/06/25 12:02:09.737, True, 1.658, 0.134508
2023/06/25 12:02:10.241, True, 1.990, 0.134813
2023/06/25 12:02:10.737, True, 1.685, 0.132982
2023/06/25 12:02:11.241, True, 1.990, 0.134127
2023/06/25 12:02:11.745, True, 1.990, 0.134127
2023/06/25 12:02:12.241, True, 1.685, 0.135348
2023/06/25 12:02:12.745, True, 1.993, 0.132143
2023/06/25 12:02:13.249, True, 1.986, 0.135195
2023/06/25 12:02:13.745, True, 1.685, 0.134737
2023/06/25 12:02:14.249, True, 1.990, 0.134813
2023/06/25 12:02:14.745, True, 2.022, 0.135958
2023/06/25 12:02:15.249, True, 1.989, 0.133745
2023/06/25 12:02:15.753, True, 1.658, 0.134508
2023/06/25 12:02:16.257, True, 1.990, 0.133974
2023/06/25 12:02:16.753, True, 1.686, 0.136263
2023/06/25 12:02:17.257, True, 1.988, 0.132906
2023/06/25 12:02:17.761, True, 1.990, 0.131151
2023/06/25 12:02:18.257, True, 1.684, 0.132677
2023/06/25 12:02:18.761, True, 1.990, 0.134661
2023/06/25 12:02:19.265, True, 1.657, 0.133516
2023/06/25 12:02:19.761, True, 2.025, 0.135271
2023/06/25 12:02:20.265, True, 1.986, 0.132753
2023/06/25 12:02:20.769, True, 1.658, 0.133440
2023/06/25 12:02:21.265, True, 2.022, 0.135042
2023/06/25 12:02:21.769, True, 1.658, 0.134813
2023/06/25 12:02:22.273, True, 1.990, 0.133364
2023/06/25 12:02:22.769, True, 1.685, 0.134508
2023/06/25 12:02:23.273, True, 1.991, 0.132143
2023/06/25 12:02:23.769, True, 1.684, 0.132906
2023/06/25 12:02:24.273, True, 1.990, 0.134127
2023/06/25 12:02:24.777, True, 1.658, 0.135042
2023/06/25 12:02:25.273, True, 2.022, 0.134585
2023/06/25 12:02:25.777, True, 1.990, 0.133440
2023/06/25 12:02:26.281, True, 1.989, 0.132601
2023/06/25 12:02:26.777, True, 1.687, 0.135348
2023/06/25 12:02:27.281, True, 1.658, 0.133440
2023/06/25 12:02:27.785, True, 1.989, 0.132677
2023/06/25 12:02:28.281, True, 1.684, 0.133745
2023/06/25 12:02:28.785, True, 1.989, 0.134737
2023/06/25 12:02:29.289, True, 1.990, 0.131991
2023/06/25 12:02:29.785, True, 1.686, 0.133135
2023/06/25 12:02:30.289, True, 1.988, 0.130846
2023/06/25 12:02:30.785, True, 2.023, 0.130388
2023/06/25 12:02:31.289, True, 1.657, 0.133288
2023/06/25 12:02:31.793, True, 1.658, 0.134127
2023/06/25 12:02:32.289, True, 2.022, 0.132219
2023/06/25 12:02:32.793, True, 1.990, 0.133135
2023/06/25 12:02:33.297, True, 1.658, 0.133364
2023/06/25 12:02:33.793, True, 1.685, 0.132296
2023/06/25 12:02:34.297, True, 1.990, 0.133593
2023/06/25 12:02:34.801, True, 1.990, 0.131456
2023/06/25 12:02:35.305, True, 1.658, 0.134279
2023/06/25 12:02:35.801, True, 2.022, 0.134890
2023/06/25 12:02:36.305, True, 1.990, 0.134279
2023/06/25 12:02:36.801, True, 1.685, 0.131533
2023/06/25 12:02:37.305, True, 1.990, 0.131914
2023/06/25 12:02:37.809, True, 1.658, 0.134356
2023/06/25 12:02:38.313, True, 1.990, 0.133669
2023/06/25 12:02:38.809, True, 1.685, 0.134203
2023/06/25 12:02:39.313, True, 1.990, 0.134203
2023/06/25 12:02:39.817, True, 1.990, 0.134356
2023/06/25 12:02:40.313, True, 1.685, 0.134279
2023/06/25 12:02:40.817, True, 1.990, 0.132143
2023/06/25 12:02:41.321, True, 1.658, 0.131914
2023/06/25 12:02:41.817, True, 2.022, 0.133135
2023/06/25 12:02:42.321, True, 1.658, 0.132982
2023/06/25 12:02:42.825, True, 1.989, 0.130922
2023/06/25 12:02:43.321, True, 2.022, 0.131609
2023/06/25 12:02:43.825, True, 1.658, 0.131228
2023/06/25 12:02:44.329, True, 1.990, 0.132677
2023/06/25 12:02:44.825, True, 2.022, 0.132525
2023/06/25 12:02:45.329, True, 1.657, 0.134051
2023/06/25 12:02:45.833, True, 1.990, 0.131762
2023/06/25 12:02:46.329, True, 2.022, 0.134585
2023/06/25 12:02:46.833, True, 1.658, 0.131991
2023/06/25 12:02:47.337, True, 1.990, 0.133516
2023/06/25 12:02:47.833, True, 2.022, 0.133974
2023/06/25 12:02:48.337, True, 1.658, 0.132372
2023/06/25 12:02:48.841, True, 1.990, 0.132219
2023/06/25 12:02:49.337, True, 1.685, 0.131533
2023/06/25 12:02:49.841, True, 1.990, 0.135271
2023/06/25 12:02:50.345, True, 1.990, 0.133822
2023/06/25 12:02:50.841, True, 1.685, 0.131991
2023/06/25 12:02:51.345, True, 1.990, 0.131228
2023/06/25 12:02:51.849, True, 1.658, 0.132830
2023/06/25 12:02:52.345, True, 2.022, 0.131991
2023/06/25 12:02:52.849, True, 1.658, 0.133593
2023/06/25 12:02:53.353, True, 1.989, 0.133440
2023/06/25 12:02:53.849, True, 2.022, 0.130541
2023/06/25 12:02:54.353, True, 1.658, 0.132753
2023/06/25 12:02:54.857, True, 1.990, 0.134508
2023/06/25 12:02:55.361, True, 1.658, 0.132143
2023/06/25 12:02:55.857, True, 2.022, 0.130999
2023/06/25 12:02:56.361, True, 1.990, 0.132372
2023/06/25 12:02:56.865, True, 1.658, 0.131991
2023/06/25 12:02:57.361, True, 2.022, 0.132830
2023/06/25 12:02:57.865, True, 1.990, 0.130694
2023/06/25 12:02:58.369, True, 1.658, 0.133364
2023/06/25 12:02:58.865, True, 2.022, 0.133516
2023/06/25 12:02:59.369, True, 1.658, 0.134661
2023/06/25 12:02:59.873, True, 1.990, 0.131380
2023/06/25 12:03:00.369, True, 1.685, 0.131609
2023/06/25 12:03:00.873, True, 1.990, 0.131685
2023/06/25 12:03:01.377, True, 1.658, 0.131609
2023/06/25 12:03:01.873, True, 2.022, 0.132143
2023/06/25 12:03:02.377, True, 1.658, 0.131304
2023/06/25 12:03:02.881, True, 1.990, 0.131075
2023/06/25 12:03:03.377, True, 2.022, 0.131456
2023/06/25 12:03:03.881, True, 1.660, 0.131762
2023/06/25 12:03:04.385, True, 1.987, 0.131533
2023/06/25 12:03:04.881, True, 1.685, 0.132448
2023/06/25 12:03:05.384, True, 1.659, 0.132372
2023/06/25 12:03:05.889, True, 1.989, 0.131151
2023/06/25 12:03:06.385, True, 1.685, 0.130999
2023/06/25 12:03:06.889, True, 1.989, 0.131914
2023/06/25 12:03:07.393, True, 1.658, 0.132143
2023/06/25 12:03:07.889, True, 2.022, 0.132372
2023/06/25 12:03:08.393, True, 1.990, 0.131456
2023/06/25 12:03:08.897, True, 1.658, 0.130236
2023/06/25 12:03:09.393, True, 2.022, 0.131304
2023/06/25 12:03:09.897, True, 1.658, 0.132525
2023/06/25 12:03:10.401, True, 1.990, 0.131609
2023/06/25 12:03:10.905, True, 1.990, 0.132143
2023/06/25 12:03:11.401, True, 1.685, 0.130541
2023/06/25 12:03:11.905, True, 1.658, 0.130159
2023/06/25 12:03:12.400, True, 2.022, 0.129702
2023/06/25 12:03:12.905, True, 1.658, 0.130999
2023/06/25 12:03:13.408, True, 1.658, 0.131228
2023/06/25 12:03:13.912, True, 1.990, 0.131762
2023/06/25 12:03:14.409, True, 2.025, 0.131609
2023/06/25 12:03:14.913, True, 1.655, 0.132219
2023/06/25 12:03:15.417, True, 1.990, 0.131456
2023/06/25 12:03:15.913, True, 2.022, 0.131151
2023/06/25 12:03:16.417, True, 1.989, 0.133059
2023/06/25 12:03:16.921, True, 1.660, 0.132067
2023/06/25 12:03:17.417, True, 2.020, 0.129015
2023/06/25 12:03:17.920, True, 1.990, 0.129168
2023/06/25 12:03:18.425, True, 1.992, 0.131075
2023/06/25 12:03:18.921, True, 1.684, 0.130922
2023/06/25 12:03:19.425, True, 1.987, 0.130770
2023/06/25 12:03:19.929, True, 1.990, 0.129549
2023/06/25 12:03:20.425, True, 2.022, 0.132525
2023/06/25 12:03:20.929, True, 1.658, 0.132296
2023/06/25 12:03:21.433, True, 1.991, 0.130388
2023/06/25 12:03:21.929, True, 1.686, 0.130999
2023/06/25 12:03:22.433, True, 1.988, 0.130007
2023/06/25 12:03:22.937, True, 1.988, 0.132219
2023/06/25 12:03:23.432, True, 1.686, 0.131609
2023/06/25 12:03:23.937, True, 1.989, 0.132525
2023/06/25 12:03:24.441, True, 1.660, 0.131304
2023/06/25 12:03:24.945, True, 1.990, 0.130388
2023/06/25 12:03:25.441, True, 1.682, 0.130465
2023/06/25 12:03:25.945, True, 1.660, 0.131075
2023/06/25 12:03:26.449, True, 1.987, 0.132906
2023/06/25 12:03:26.945, True, 2.022, 0.128862
2023/06/25 12:03:27.449, True, 1.660, 0.132830
2023/06/25 12:03:27.953, True, 1.991, 0.131991
2023/06/25 12:03:28.449, True, 1.681, 0.132143
2023/06/25 12:03:28.953, True, 1.990, 0.132677
2023/06/25 12:03:29.457, True, 1.658, 0.130922
2023/06/25 12:03:29.953, True, 1.685, 0.131151
2023/06/25 12:03:30.457, True, 1.993, 0.128786
2023/06/25 12:03:30.960, True, 1.989, 0.130999
2023/06/25 12:03:31.457, True, 1.682, 0.129778
2023/06/25 12:03:31.961, True, 1.993, 0.130083
2023/06/25 12:03:32.457, True, 2.022, 0.129549
2023/06/25 12:03:32.961, True, 1.655, 0.130999
2023/06/25 12:03:33.464, True, 1.990, 0.133288
2023/06/25 12:03:33.960, True, 2.022, 0.130694
2023/06/25 12:03:34.465, True, 1.658, 0.132296
2023/06/25 12:03:34.969, True, 1.990, 0.130159
2023/06/25 12:03:35.465, True, 1.685, 0.130617
2023/06/25 12:03:35.969, True, 1.990, 0.129473
2023/06/25 12:03:36.472, True, 1.990, 0.129549
2023/06/25 12:03:36.969, True, 2.022, 0.129931
2023/06/25 12:03:37.473, True, 1.990, 0.135653
2023/06/25 12:03:37.969, True, 1.685, 0.131685
2023/06/25 12:03:38.473, True, 1.990, 0.129549
2023/06/25 12:03:38.977, True, 1.989, 0.129778
2023/06/25 12:03:39.473, True, 1.685, 0.128939
2023/06/25 12:03:39.977, True, 1.990, 0.129397
2023/06/25 12:03:40.481, True, 1.990, 0.130465
2023/06/25 12:03:40.977, True, 1.685, 0.130007
2023/06/25 12:03:41.481, True, 1.990, 0.130541
2023/06/25 12:03:41.985, True, 1.658, 0.128481
2023/06/25 12:03:42.481, True, 2.022, 0.129549
2023/06/25 12:03:42.985, True, 1.658, 0.128862
2023/06/25 12:03:43.481, True, 1.685, 0.131533
2023/06/25 12:03:43.985, True, 1.989, 0.129625
2023/06/25 12:03:44.489, True, 1.992, 0.128557
2023/06/25 12:03:44.993, True, 1.988, 0.131762
2023/06/25 12:03:45.489, True, 1.685, 0.130770
2023/06/25 12:03:45.993, True, 1.990, 0.126726
2023/06/25 12:03:46.489, True, 1.685, 0.128786
2023/06/25 12:03:46.993, True, 1.990, 0.133059
2023/06/25 12:03:47.497, True, 1.661, 0.129091
2023/06/25 12:03:47.993, True, 2.019, 0.130770
2023/06/25 12:03:48.497, True, 1.658, 0.131762
2023/06/25 12:03:49.001, True, 1.990, 0.129091
2023/06/25 12:03:49.497, True, 1.685, 0.130541
2023/06/25 12:03:50.001, True, 1.990, 0.130770
2023/06/25 12:03:50.505, True, 1.990, 0.129168
2023/06/25 12:03:51.001, True, 1.685, 0.132753
2023/06/25 12:03:51.505, True, 1.990, 0.130846
2023/06/25 12:03:52.009, True, 1.657, 0.130846
2023/06/25 12:03:52.505, True, 2.022, 0.128481
2023/06/25 12:03:53.009, True, 1.658, 0.130617
2023/06/25 12:03:53.513, True, 1.991, 0.129625
2023/06/25 12:03:54.009, True, 1.684, 0.130388
2023/06/25 12:03:54.513, True, 1.990, 0.129015
2023/06/25 12:03:55.017, True, 1.989, 0.131075
2023/06/25 12:03:55.521, True, 1.659, 0.129473
2023/06/25 12:03:56.017, True, 2.020, 0.127184
2023/06/25 12:03:56.521, True, 1.658, 0.130846
2023/06/25 12:03:57.025, True, 1.990, 0.127718
2023/06/25 12:03:57.529, True, 1.990, 0.130236
2023/06/25 12:03:58.025, True, 2.022, 0.129854
2023/06/25 12:03:58.529, True, 1.658, 0.129549
2023/06/25 12:03:59.033, True, 1.990, 0.129244
2023/06/25 12:03:59.529, True, 2.022, 0.131075
2023/06/25 12:04:00.033, True, 1.659, 0.128862
2023/06/25 12:04:00.537, True, 1.989, 0.130236
2023/06/25 12:04:01.033, True, 1.685, 0.129244
2023/06/25 12:04:01.537, True, 1.990, 0.129625
2023/06/25 12:04:02.041, True, 1.658, 0.127947
2023/06/25 12:04:02.537, True, 2.022, 0.125887
2023/06/25 12:04:03.041, True, 1.990, 0.129168
2023/06/25 12:04:03.545, True, 1.660, 0.130617
2023/06/25 12:04:04.041, True, 1.682, 0.129931
2023/06/25 12:04:04.544, True, 1.990, 0.130312
2023/06/25 12:04:05.049, True, 1.990, 0.130159
2023/06/25 12:04:05.545, True, 2.022, 0.130083
2023/06/25 12:04:06.049, True, 1.657, 0.129397
2023/06/25 12:04:06.553, True, 1.658, 0.131075
2023/06/25 12:04:07.049, True, 2.022, 0.129091
2023/06/25 12:04:07.553, True, 1.658, 0.130846
2023/06/25 12:04:08.056, True, 1.990, 0.128481
2023/06/25 12:04:08.553, True, 1.685, 0.130694
2023/06/25 12:04:09.057, True, 1.990, 0.130007
2023/06/25 12:04:09.561, True, 1.990, 0.130617
2023/06/25 12:04:10.057, True, 1.685, 0.128710
2023/06/25 12:04:10.561, True, 1.658, 0.131762
2023/06/25 12:04:11.065, True, 1.993, 0.131762
2023/06/25 12:04:11.561, True, 1.682, 0.128099
2023/06/25 12:04:12.065, True, 1.990, 0.130159
2023/06/25 12:04:12.569, True, 1.989, 0.130312